Weather History for Nantucket, MA

Change the Weather History Date:

Tuesday, November 6, 2012

  Actual Average Record
Temperature  
Mean Temperature 38 °F -  
Max Temperature 44 °F 53 °F 67 °F (1961)
Min Temperature 32 °F 40 °F 28 °F (1967)
Degree Days  
Heating Degree Days 27    
Moisture  
Dew Point 28 °F    
Average Humidity 65    
Maximum Humidity 82    
Minimum Humidity 53    
Precipitation  
Precipitation 0.00 in - - ()
Sea Level Pressure  
Sea Level Pressure 30.16 in    
Wind  
Wind Speed 8 mph (NNE)    
Max Wind Speed 13 mph    
Max Gust Speed 18 mph    
Visibility 10 miles    
Events      
Averages and records for this station are not official NWS values.
T = Trace of Precipitation, MM = Missing Value Source: NWS Daily Summary

Daily Weather History Graph

Daily Weather History Graph

Search for Another Location

Airport:

Trip Planner

Search our weather history database for the weather conditions in past years. The results will help you decide how hot, cold, wet, or windy it might be!

Date:

Astronomy

Nov. 06, 2012 Rise Set
Actual Time 6:18 AM EST 4:29 PM EST
Civil Twilight 5:49 AM EST 4:58 PM EST
Nautical Twilight 5:16 AM EST 5:31 PM EST
Astronomical Twilight 4:43 AM EST 6:03 PM EST
Moon 11:05 PM EST (11/6) 12:08 PM EST (11/6)
Length of Visible Light 11h 09m
Length of Day
10h 11m
Waning Gibbous, 53% of the Moon is Illuminated
Nov 6
Waning Gibbous
Nov 6
Last Quarter
Nov 13
New
Nov 20
First Quarter
Nov 28
Full

Hourly Weather History & Observations

Time (EST) Temp. Windchill Dew Point Humidity Pressure Visibility Wind Dir Wind Speed Gust Speed Precip Events Conditions
12:53 AM 39.0 °F 31.4 °F 28.0 °F 65% 30.10 in 10.0 mi NW 12.7 mph - N/A   Overcast
1:53 AM 37.9 °F 30.9 °F 28.9 °F 70% 30.12 in 10.0 mi NW 10.4 mph - N/A   Clear
2:53 AM 37.9 °F 30.5 °F 28.9 °F 70% 30.12 in 10.0 mi NNW 11.5 mph - N/A   Mostly Cloudy
3:53 AM 37.9 °F 32.1 °F 28.9 °F 70% 30.13 in 10.0 mi NNW 8.1 mph - N/A   Mostly Cloudy
4:53 AM 37.0 °F 31.6 °F 27.0 °F 67% 30.13 in 10.0 mi North 6.9 mph - N/A   Mostly Cloudy
5:53 AM 36.0 °F 31.1 °F 27.0 °F 70% 30.14 in 10.0 mi North 5.8 mph - N/A   Mostly Cloudy
7:53 AM 42.1 °F 37.7 °F 26.1 °F 53% 30.19 in 10.0 mi NNW 6.9 mph - N/A   Mostly Cloudy
8:53 AM 39.9 °F 36.7 °F 25.0 °F 55% 30.20 in 10.0 mi North 4.6 mph - N/A   Partly Cloudy
9:53 AM 42.1 °F 36.1 °F 27.0 °F 55% 30.21 in 10.0 mi NNE 10.4 mph - N/A   Clear
10:53 AM 42.1 °F - 26.1 °F 53% 30.21 in 10.0 mi Calm Calm - N/A   Overcast
11:53 AM 43.0 °F - 27.0 °F 53% 30.19 in 10.0 mi Calm Calm - N/A   Mostly Cloudy
12:53 PM 43.0 °F 38.8 °F 27.0 °F 53% 30.18 in 10.0 mi NNE 6.9 mph - N/A   Mostly Cloudy
1:53 PM 44.1 °F 39.5 °F 28.0 °F 53% 30.17 in 10.0 mi North 8.1 mph - N/A   Clear
2:53 PM 43.0 °F 37.7 °F 28.0 °F 56% 30.17 in 10.0 mi North 9.2 mph - N/A   Clear
3:53 PM 39.9 °F 35.8 °F 28.0 °F 63% 30.18 in 10.0 mi NNE 5.8 mph - N/A   Clear
4:53 PM 35.1 °F 30.1 °F 27.0 °F 72% 30.18 in 10.0 mi NE 5.8 mph - N/A   Clear
5:53 PM 32.0 °F 24.8 °F 27.0 °F 82% 30.18 in 10.0 mi NNE 8.1 mph - N/A   Clear
6:53 PM 35.1 °F 30.1 °F 28.9 °F 78% 30.20 in 10.0 mi NNE 5.8 mph - N/A   Mostly Cloudy
7:53 PM 37.0 °F 31.6 °F 30.9 °F 79% 30.18 in 10.0 mi NE 6.9 mph - N/A   Overcast
8:53 PM 37.9 °F 32.7 °F 32.0 °F 79% 30.17 in 10.0 mi NE 6.9 mph - N/A   Mostly Cloudy
9:53 PM 42.1 °F 37.1 °F 32.0 °F 67% 30.12 in 10.0 mi ENE 8.1 mph - N/A   Mostly Cloudy
10:53 PM 44.1 °F 38.6 °F 30.9 °F 60% 30.11 in 10.0 mi ENE 10.4 mph - N/A   Mostly Cloudy
11:53 PM 44.1 °F 37.7 °F 32.0 °F 63% 30.10 in 10.0 mi ENE 12.7 mph 18.4 mph N/A   Mostly Cloudy